User: anonymous
Location: Granada
(37.1830°N, 3.6000°W)
Time: 05:37:17
(UTC+02:00)
Language:

Iridium 70 - Orbit

View from above orbital plane
View from above orbital plane
View from above satellite
View from above satellite

Ground track
Ground track

The orbit data is extracted from the following two-line orbital elements,

1 25342U 98032A   14260.17713497  .00000171  00000-0  54106-4 0  9528
2 25342 086.3927 283.8568 0002434 104.4199 299.6554 14.34217963855192
Epoch (UTC): 17 September 2014 04:15:04
Eccentricity: 0.0002434
inclination: 86.3927°
perigee height: 776 km
apogee height: 779 km
right ascension of ascending node: 283.8568°
argument of perigee: 104.4199°
revolutions per day: 14.34217963
mean anomaly at epoch: 299.6554°
orbit number at epoch: 85519

The dashed part of the orbit path shows where the satellite is in the earth's shadow,  

DLR